Nausori, Fiji

6:18 PM +12 on August 22, 2017 (GMT +1200)
Nausori International

Weather History for NFNA - January, 2006

Change the Weather History Date:

Sunday, January 29, 2006

  Actual Average Record
Temperature  
Mean Temperature 80 °F -  
Max Temperature 86 °F 88 °F - ()
Min Temperature 75 °F 75 °F - ()
Cooling Degree Days 16    
Growing Degree Days 30 (Base 50)    
Moisture  
Dew Point 76 °F    
Average Humidity 86    
Maximum Humidity 100    
Minimum Humidity 63    
Precipitation  
Precipitation 0.04 in 0.38 in - ()
Sea Level Pressure  
Sea Level Pressure 29.68 in    
Wind  
Wind Speed 3 mph ()    
Max Wind Speed 12 mph    
Max Gust Speed -    
Visibility 14.6 miles    
Events Rain    
T = Trace of Precipitation, MM = Missing Value Source: Averaged Metar Reports

Daily Weather History Graph

Daily Weather History Graph

Search for Another Location

Airport or City:

Trip Planner

Search our weather history database for the weather conditions in past years. The results will help you decide how hot, cold, wet, or windy it might be!

Date:

Astronomy

Jan. 29, 2006 Rise Set
Actual Time 5:50 AM +12 6:46 PM +12
Civil Twilight 5:27 AM +12 7:09 PM +12
Nautical Twilight 5:00 AM +12 7:37 PM +12
Astronomical Twilight 4:32 AM +12 8:05 PM +12
Moon 4:56 AM +12 (1/29) 6:37 PM +12 (1/29)
Length of Visible Light 13h 42m
Length of Day
12h 56m
Waning Crescent, 1% of the Moon is Illuminated
Jan 29
Waning Crescent
Jan 30
New
Feb 5
First Quarter
Feb 13
Full
Feb 21
Last Quarter

Hourly Weather History & Observations

Time (+12) Temp. Heat Index Dew Point Humidity Pressure Visibility Wind Dir Wind Speed Gust Speed Precip Events Conditions
12:00 AM 76 °F - 76 °F 98% 29.71 in 12 mi Calm Calm - - Rain Light Rain
12:00 AM 77.0 °F - 75.2 °F 94% 29.71 in 18.6 mi Calm Calm - N/A   Overcast
2:00 AM 77.0 °F - 75.2 °F 94% 29.65 in 18.6 mi Calm Calm - N/A   Overcast
3:00 AM 77 °F - 76 °F 95% 29.66 in 12 mi Calm Calm - - Rain Light Rain Showers
3:00 AM 77.0 °F - 75.2 °F 94% 29.65 in 18.6 mi Calm Calm - N/A   Overcast
4:00 AM 77.0 °F - 75.2 °F 94% 2.95 in 18.6 mi NE 5.8 mph - N/A Rain Light Rain Showers
5:00 AM 77.0 °F - 75.2 °F 94% 29.65 in 24.9 mi Calm Calm - N/A   Overcast
6:00 AM 77 °F - 76 °F 94% 29.67 in 12 mi Calm Calm - - Rain Light Rain Showers
6:00 AM 77.0 °F - 75.2 °F 94% 29.65 in 24.9 mi Calm Calm - N/A   Overcast
7:00 AM 77.0 °F - 75.2 °F 94% 29.68 in 31.1 mi Calm Calm - N/A   Overcast
8:00 AM 78.8 °F - 75.2 °F 89% 29.71 in 31.1 mi Calm Calm - N/A   Mostly Cloudy
9:00 AM 82 °F - 76 °F 76% 29.72 in 31 mi NNW 8.1 mph - -   Partly Cloudy
9:00 AM 82.4 °F 89.5 °F 75.2 °F 79% 29.71 in 31.1 mi NNW 8.1 mph - N/A   Mostly Cloudy
10:00 AM 82.4 °F 92.4 °F 78.8 °F 89% 29.71 in 31.1 mi West 3.5 mph - N/A   Mostly Cloudy
11:00 AM 82.4 °F 92.4 °F 78.8 °F 89% 29.68 in 31.1 mi WNW 9.2 mph - N/A   Mostly Cloudy
12:00 PM 84 °F - 78 °F 78% 29.70 in 12 mi NNW 11.5 mph - -   Partly Cloudy
12:00 PM 84.2 °F 96.1 °F 78.8 °F 84% 29.68 in 24.9 mi NNW 11.5 mph - N/A   Mostly Cloudy
1:00 PM 84.2 °F 96.1 °F 78.8 °F 84% 29.68 in 31.1 mi NNW 9.2 mph - N/A   Mostly Cloudy
2:00 PM 84.2 °F 96.1 °F 78.8 °F 84% 29.65 in 24.9 mi NNW 5.8 mph - N/A   Mostly Cloudy
3:00 PM 84 °F - 73 °F 63% 29.66 in 12 mi NNW 11.5 mph - -   Partly Cloudy
3:00 PM 86.0 °F 93.4 °F 73.4 °F 66% 29.65 in 24.9 mi NNW 11.5 mph - N/A   Mostly Cloudy
4:00 PM 84.2 °F 92.3 °F 75.2 °F 74% 29.65 in 24.9 mi NNW 11.5 mph - N/A   Mostly Cloudy
5:00 PM 84.2 °F 92.3 °F 75.2 °F 74% 29.65 in 24.9 mi NNW 11.5 mph - N/A   Mostly Cloudy
6:00 PM 83 °F - 74 °F 69% 29.67 in 12 mi WNW 5.8 mph - -   Partly Cloudy
6:00 PM 84.2 °F 92.3 °F 75.2 °F 74% 29.65 in 24.9 mi WNW 5.8 mph - N/A   Mostly Cloudy
7:00 PM 80.6 °F 86.2 °F 75.2 °F 84% 29.68 in 24.9 mi Calm Calm - N/A   Mostly Cloudy
8:00 PM 78.8 °F - 75.2 °F 89% 29.71 in 24.9 mi North 5.8 mph - N/A   Mostly Cloudy
9:00 PM 79 °F - 76 °F 87% 29.73 in 12 mi WNW 5.8 mph - -   Partly Cloudy
9:00 PM 78.8 °F - 75.2 °F 89% 29.71 in 24.9 mi WNW 5.8 mph - N/A   Mostly Cloudy
10:00 PM 78.8 °F - 75.2 °F 89% 29.74 in 12.4 mi WNW 5.8 mph - N/A   Mostly Cloudy
11:00 PM 77.0 °F - 77.0 °F 100% 29.71 in 18.6 mi WNW 5.8 mph - N/A Rain Light Rain